Regional Weather Roundup
Issued by NWS

Home | Current Version | Previous Version | Graphics & Text | Print | Product List | Glossary On
Versions: 1 2 3 4 5 6 7 8 9 10 11 12 13 14 15 16 17 18 19 20 21 22 23 24 25 26 27 28 29 30 31 32 33 34 35 36 37 38 39 40 41 42 43 44 45 46 47 48 49 50
000
ASUS43 KFSD 222310
RWRSD

WEATHER ROUNDUP FOR SOUTH DAKOTA
NATIONAL WEATHER SERVICE SIOUX FALLS SD
500 PM CST WED FEB 22 2017

NOTE: "FAIR" INDICATES FEW OR NO CLOUDS BELOW 12,000 FEET WITH NO
SIGNIFICANT WEATHER AND/OR OBSTRUCTIONS TO VISIBILITY.


SDZ001>005-009-010-012>017-230000-
NORTHWEST AND NORTH CENTRAL SOUTH DAKOTA

CITY           SKY/WX    TMP DP  RH WIND       PRES   REMARKS
BUFFALO          N/A     34  30  85 N13       29.81R WCI  25
FAITH            N/A     34  30  85 N20       29.84R WCI  23
MOBRIDGE       CLOUDY    36  31  82 N12       29.82R
$$

SDZ012>016-024>037-041>051-057-063-072>074-230000-
SOUTHWEST AND SOUTH CENTRAL SOUTH DAKOTA

CITY           SKY/WX    TMP DP  RH WIND       PRES   REMARKS
RAPID CTY ARPT SUNNY     44  30  57 N33G41    29.79R
PIERRE         MOSUNNY   43  33  68 N26G32    29.78R
CUSTER         SUNNY     41  14  33 W9        29.77S
ELLSWORTH AFB  SUNNY     44  30  57 N25G35    29.80
PHILIP         MOSUNNY   46  34  62 N21G32    29.80R
PINE RIDGE     PTSUNNY   53  20  27 NW13      29.77S
SPEARFISH      CLOUDY    36  30  80 N18       29.86R
WINNER         FAIR      56  34  43 N17       29.75R
$$

SDZ004>011-016>023-039-040-230000-
NORTHEAST SOUTH DAKOTA

CITY           SKY/WX    TMP DP  RH WIND       PRES   REMARKS
ABERDEEN       CLOUDY    34  30  85 N22G29    29.81R WCI  22
WATERTOWN      CLOUDY    38  34  85 NW15      29.74R
BROOKINGS      CLOUDY    46  39  76 NW21      29.70R
SISSETON         N/A     34  33  96 N16G30    29.77R WCI  24
$$

SDZ017-020-022-023-036>040-048>070-230000-
SOUTHEAST SOUTH DAKOTA

CITY           SKY/WX    TMP DP  RH WIND       PRES   REMARKS
SIOUX FALLS    MOSUNNY   54  42  64 NW23G31   29.68R
HURON          MOSUNNY   44  39  82 N21       29.76R
CHAMBERLAIN    MOSUNNY   53  38  55 NW13G24   29.76R
MITCHELL       SUNNY     53  40  61 NW15G25   29.73R
YANKTON        SUNNY     59  37  44 NW16G23   29.70R
$$

ABBREVIATIONS USED IN REMARKS
   TC - TEMPERATURE IN CELSIUS
  WCI - WIND CHILL INDEX
   HX - HEAT INDEX
  VSB - VISIBILITY





USA.gov is the U.S. government's official web portal to all federal, state and local government web resources and services.